CW7443 Weather Reports


time (UTC)temp
C
wind
direction
speed
KPH
gust
KPH
rain 1hr
cm
rain 24hr
cm
rain mn
cm
humidity
%
barometer
mb
20260508115328 8 173 0.0 6.4 0.00 0.00 0.00 72 1013.9
20260508114813 7 138 0.0 4.8 0.00 0.00 0.00 72 1013.9
20260508114320 7 259 1.6 4.8 0.00 0.00 0.00 72 1013.7
20260508113826 7 125 0.0 9.7 0.00 0.00 0.00 72 1013.7
20260508113314 7 165 0.0 9.7 0.00 0.00 0.00 73 1013.7
20260508112838 7 63 0.0 3.2 0.00 0.00 0.00 73 1013.5
20260508112322 7 156 0.0 6.4 0.00 0.00 0.00 75 1013.5
20260508111814 7 176 0.0 6.4 0.00 0.00 0.00 75 1013.5
20260508111338 7 116 0.0 3.2 0.00 0.00 0.00 76 1013.4
20260508110823 7 115 0.0 3.2 0.00 0.00 0.00 76 1013.4
20260508110329 7 116 0.0 3.2 0.00 0.00 0.00 77 1013.4
20260508105830 7 158 0.0 0.0 0.00 0.00 0.00 78 1013.3
20260508105317 6 158 0.0 3.2 0.00 0.00 0.00 78 1013.3
20260508104823 6 158 0.0 3.2 0.00 0.00 0.00 80 1013.3
20260508104324 6 159 0.0 3.2 0.00 0.00 0.00 80 1013.2
20260508103853 6 51 0.0 0.0 0.00 0.00 0.00 82 1013.2
20260508103316 6 51 0.0 0.0 0.00 0.00 0.00 84 1013.2
20260508102818 6 51 0.0 0.0 0.00 0.00 0.00 86 1013.1
20260508102328 6 51 0.0 0.0 0.00 0.00 0.00 84 1013.1
20260508101816 6 51 0.0 0.0 0.00 0.00 0.00 84 1013.1
20260508101321 6 51 0.0 0.0 0.00 0.00 0.00 82 1013.2
20260508100845 6 51 0.0 0.0 0.00 0.00 0.00 82 1013.2
20260508100336 6 51 0.0 0.0 0.00 0.00 0.00 82 1013.2
20260508095822 6 51 0.0 0.0 0.00 0.00 0.00 80 1013.1
20260508095328 6 51 0.0 0.0 0.00 0.00 0.00 81 1013.1
20260508094853 6 51 0.0 0.0 0.00 0.00 0.00 81 1013.1
20260508094335 6 51 0.0 0.0 0.00 0.00 0.00 81 1013.1
20260508093820 6 51 0.0 0.0 0.00 0.00 0.00 79 1013.1
20260508093346 6 51 0.0 0.0 0.00 0.00 0.00 81 1013.1
20260508092828 6 51 0.0 0.0 0.00 0.00 0.00 81 1013.3
20260508092318 6 51 0.0 0.0 0.00 0.00 0.00 80 1013.3
20260508091833 6 53 0.0 0.0 0.00 0.00 0.00 80 1013.3
20260508091318 6 53 0.0 0.0 0.00 0.00 0.00 81 1013.2
20260508090842 6 53 0.0 0.0 0.00 0.00 0.00 80 1013.2
20260508090330 6 53 0.0 0.0 0.00 0.00 0.00 80 1013.2
20260508085836 6 53 0.0 0.0 0.00 0.00 0.00 80 1013.1
20260508085342 6 53 0.0 0.0 0.00 0.00 0.00 80 1013.1
20260508084827 6 53 0.0 0.0 0.00 0.00 0.00 79 1013.1
20260508084351 6 53 0.0 0.0 0.00 0.00 0.00 79 1013.1
20260508083858 7 53 0.0 0.0 0.00 0.00 0.00 80 1013.1
20260508083319 7 53 0.0 0.0 0.00 0.00 0.00 78 1013.1
20260508082822 7 53 0.0 0.0 0.00 0.00 0.00 76 1013.2
20260508082327 7 53 0.0 0.0 0.00 0.00 0.00 75 1013.2
20260508081814 7 53 0.0 0.0 0.00 0.00 0.00 76 1013.2
20260508081322 7 53 0.0 0.0 0.00 0.00 0.00 76 1013.3
20260508080847 7 53 0.0 0.0 0.00 0.00 0.00 74 1013.3
20260508080312 8 53 0.0 0.0 0.00 0.00 0.00 74 1013.3
20260508075818 8 53 0.0 0.0 0.00 0.00 0.00 72 1013.4
20260508075323 8 53 0.0 0.0 0.00 0.00 0.00 72 1013.4
20260508074829 8 53 0.0 0.0 0.00 0.00 0.00 71 1013.4
20260508074350 8 53 0.0 0.0 0.00 0.00 0.00 70 1013.4
20260508073853 8 53 0.0 0.0 0.00 0.00 0.00 71 1013.4
20260508073319 8 53 0.0 0.0 0.00 0.00 0.00 71 1013.4
20260508072821 8 53 0.0 0.0 0.00 0.00 0.00 71 1013.9
20260508072350 8 53 0.0 0.0 0.00 0.00 0.00 69 1013.9
20260508071819 8 53 0.0 0.0 0.00 0.00 0.00 70 1013.9
20260508071347 8 53 0.0 0.0 0.00 0.00 0.00 71 1013.8
20260508070851 8 53 0.0 0.0 0.00 0.00 0.00 69 1013.8
20260508070315 8 53 0.0 0.0 0.00 0.00 0.00 75 1013.8
20260508065824 8 53 0.0 0.0 0.00 0.00 0.00 73 1014.0
20260508065332 8 53 0.0 0.0 0.00 0.00 0.00 74 1014.0
20260508064817 8 53 0.0 0.0 0.00 0.00 0.00 73 1014.0
20260508064321 8 53 0.0 0.0 0.00 0.00 0.00 72 1014.0
20260508063829 8 53 0.0 0.0 0.00 0.00 0.00 74 1014.0
20260508063334 8 53 0.0 0.0 0.00 0.00 0.00 71 1014.0
20260508062856 8 53 0.0 0.0 0.00 0.00 0.00 72 1014.0
20260508062320 8 53 0.0 0.0 0.00 0.00 0.00 74 1014.0
20260508061825 8 53 0.0 0.0 0.00 0.00 0.00 77 1014.0
20260508061331 8 53 0.0 0.0 0.00 0.00 0.00 73 1013.4
20260508060839 8 53 0.0 0.0 0.00 0.00 0.00 72 1013.4
20260508060329 8 53 0.0 0.0 0.00 0.00 0.00 76 1013.4
20260508055835 7 53 0.0 0.0 0.00 0.00 0.00 74 1013.6
20260508055321 7 53 0.0 0.0 0.00 0.00 0.00 76 1013.6
20260508054825 7 53 0.0 0.0 0.00 0.00 0.00 74 1013.6
20260508054329 7 53 0.0 1.6 0.00 0.00 0.00 80 1013.6
20260508053834 7 53 0.0 1.6 0.00 0.00 0.00 79 1013.6
20260508053318 7 53 0.0 0.0 0.00 0.00 0.00 78 1013.6
20260508052822 7 53 0.0 0.0 0.00 0.00 0.00 80 1013.6
20260508052327 7 53 0.0 0.0 0.00 0.00 0.00 78 1013.6
20260508051832 7 53 0.0 0.0 0.00 0.00 0.00 79 1013.6
20260508051336 7 53 0.0 0.0 0.00 0.00 0.00 79 1013.8
20260508050316 7 53 0.0 0.0 0.00 0.00 0.00 82 1013.8
20260508045819 6 53 0.0 0.0 0.00 0.00 0.00 83 1014.0
20260508045325 6 53 0.0 0.0 0.00 0.00 0.00 81 1014.0
20260508044830 6 53 0.0 0.0 0.00 0.00 0.00 81 1014.0
20260508044336 6 53 0.0 0.0 0.00 0.00 0.00 80 1014.0
20260508043821 6 53 0.0 0.0 0.00 0.00 0.00 80 1014.0
20260508043346 6 53 0.0 0.0 0.00 0.00 0.00 79 1014.0
20260508042827 6 53 0.0 0.0 0.00 0.00 0.00 79 1014.0
20260508042335 6 53 0.0 0.0 0.00 0.00 0.00 79 1014.0
20260508041819 6 53 0.0 0.0 0.00 0.00 0.00 79 1014.0
20260508041319 6 53 0.0 0.0 0.00 0.00 0.00 79 1013.8
20260508040823 6 53 0.0 0.0 0.00 0.00 0.00 81 1013.8
20260508040332 6 53 0.0 0.0 0.00 0.00 0.00 82 1013.8
20260508035818 6 53 0.0 0.0 0.00 0.00 0.00 82 1014.0
20260508035344 6 53 0.0 0.0 0.00 0.00 0.00 81 1014.0
20260508034848 6 53 0.0 0.0 0.00 0.00 0.00 82 1014.0
20260508034335 6 53 0.0 0.0 0.00 0.00 0.00 82 1013.7
20260508033900 6 53 0.0 0.0 0.00 0.00 0.00 81 1013.7
20260508033323 6 53 0.0 0.0 0.00 0.00 0.00 80 1013.7
20260508032826 6 53 0.0 0.0 0.00 0.00 0.00 78 1013.8
20260508032335 6 53 0.0 0.0 0.00 0.00 0.00 79 1013.8
20260508031817 6 53 0.0 0.0 0.00 0.00 0.00 81 1013.8
20260508031319 6 53 0.0 0.0 0.00 0.00 0.00 78 1013.8
20260508030826 6 53 0.0 0.0 0.00 0.00 0.00 78 1013.8
20260508030316 6 53 0.0 0.0 0.00 0.00 0.00 79 1013.8
20260508025823 7 53 0.0 0.0 0.00 0.00 0.00 83 1013.8
20260508025329 7 53 0.0 0.0 0.00 0.00 0.00 81 1013.8
20260508024834 7 53 0.0 0.0 0.00 0.00 0.00 76 1013.8
20260508024340 7 53 0.0 0.0 0.00 0.00 0.00 76 1014.0
20260508023825 7 53 0.0 0.0 0.00 0.00 0.00 76 1014.0
20260508023331 7 53 0.0 0.0 0.00 0.00 0.00 76 1014.0
20260508022835 7 53 0.0 0.0 0.00 0.00 0.00 81 1013.8
20260508022318 7 53 0.0 0.0 0.00 0.00 0.00 78 1013.8
20260508021824 7 53 0.0 0.0 0.00 0.00 0.00 79 1013.8
20260508021346 7 53 0.0 0.0 0.00 0.00 0.00 78 1013.8
20260508020831 7 53 0.0 0.0 0.00 0.00 0.00 78 1013.8
20260508020321 7 53 0.0 0.0 0.00 0.00 0.00 75 1013.8
20260508015824 7 53 0.0 0.0 0.00 0.00 0.00 74 1013.8
20260508015332 7 53 0.0 0.0 0.00 0.00 0.00 75 1013.8
20260508014817 7 53 0.0 0.0 0.00 0.00 0.00 74 1013.8
20260508014323 7 53 0.0 0.0 0.00 0.00 0.00 73 1013.7
20260508013848 7 53 0.0 0.0 0.00 0.00 0.00 72 1013.7
20260508013333 8 53 0.0 0.0 0.00 0.00 0.00 71 1013.7
20260508012835 8 53 0.0 0.0 0.00 0.00 0.00 71 1013.5
20260508012318 8 53 0.0 0.0 0.00 0.00 0.00 70 1013.5
20260508011827 8 53 0.0 0.0 0.00 0.00 0.00 70 1013.5
20260508011329 8 53 0.0 0.0 0.00 0.00 0.00 71 1013.4
20260508010854 8 53 0.0 0.0 0.00 0.00 0.00 65 1013.4
20260508010323 9 53 0.0 0.0 0.00 0.00 0.00 67 1013.4
20260508005829 9 53 0.0 0.0 0.00 0.00 0.00 68 1013.4
20260508005337 9 53 0.0 0.0 0.00 0.00 0.00 68 1013.4
20260508004822 9 53 0.0 0.0 0.00 0.00 0.00 65 1013.4
20260508004347 10 53 0.0 0.0 0.00 0.00 0.00 61 1013.2
20260508003830 10 53 0.0 0.0 0.00 0.00 0.00 61 1013.2
20260508003318 10 53 0.0 0.0 0.00 0.00 0.00 61 1013.2
20260508002849 10 53 0.0 0.0 0.00 0.00 0.00 57 1013.1
20260508002333 11 53 0.0 0.0 0.00 0.00 0.00 57 1013.1
20260508001816 11 53 0.0 0.0 0.00 0.00 0.00 56 1013.1
20260508001322 11 53 0.0 0.0 0.00 0.00 0.00 56 1013.0
20260508000847 11 53 0.0 0.0 0.00 0.00 0.00 57 1013.0
20260508000315 11 53 0.0 0.0 0.00 0.00 0.00 53 1013.0
20260507235823 11 53 0.0 3.2 0.00 0.00 0.00 52 1013.0
20260507235328 12 53 0.0 3.2 0.00 0.00 0.00 49 1013.0
20260507234834 12 53 0.0 3.2 0.00 0.00 0.00 48 1013.0
20260507234321 12 53 0.0 3.2 0.00 0.00 0.00 48 1012.9
20260507233829 12 52 0.0 1.6 0.00 0.00 0.00 48 1012.9
20260507233318 12 51 0.0 0.0 0.00 0.00 0.00 46 1012.9
20260507232818 12 51 0.0 4.8 0.00 0.00 0.00 49 1012.9
20260507232326 12 51 0.0 6.4 0.00 0.00 0.00 48 1012.9
20260507231830 12 52 0.0 6.4 0.00 0.00 0.00 49 1012.9
20260507231336 12 53 1.6 6.4 0.00 0.00 0.00 48 1012.9
20260507230821 12 95 0.0 6.4 0.00 0.00 0.00 49 1012.9
20260507230329 12 157 0.0 6.4 0.00 0.00 0.00 49 1012.9
20260507225832 12 64 0.0 8.0 0.00 0.00 0.00 46 1013.0
20260507225341 12 76 1.6 8.0 0.00 0.00 0.00 44 1013.0
20260507224829 13 34 1.6 11.3 0.00 0.00 0.00 45 1013.0
20260507224333 13 40 0.0 11.3 0.00 0.00 0.00 47 1013.1
20260507223859 13 26 0.0 6.4 0.00 0.00 0.00 46 1013.1
20260507223322 13 26 1.6 6.4 0.00 0.00 0.00 41 1013.1
20260507222846 13 89 0.0 9.7 0.00 0.00 0.00 43 1013.0
20260507222330 13 89 0.0 9.7 0.00 0.00 0.00 44 1013.0
20260507221819 13 119 0.0 8.0 0.00 0.00 0.00 43 1013.0
20260507221344 13 54 0.0 11.3 0.00 0.00 0.00 48 1012.9
20260507220855 14 53 1.6 11.3 0.00 0.00 0.00 41 1012.9
20260507220318 14 36 1.6 11.3 0.00 0.00 0.00 42 1012.9
20260507215818 15 48 1.6 6.4 0.00 0.00 0.00 42 1012.9
20260507215330 14 223 1.6 9.7 0.00 0.00 0.00 44 1012.9
20260507214818 14 222 1.6 9.7 0.00 0.00 0.00 43 1012.9
20260507214321 14 107 1.6 6.4 0.00 0.00 0.00 43 1012.9
20260507213846 14 312 1.6 8.0 0.00 0.00 0.00 45 1012.9
20260507213330 14 29 0.0 8.0 0.00 0.00 0.00 47 1012.9
20260507212855 15 9 0.0 8.0 0.00 0.00 0.00 45 1012.8
20260507212321 14 43 3.2 9.7 0.00 0.00 0.00 43 1012.8
20260507211826 14 41 1.6 9.7 0.00 0.00 0.00 43 1012.8
20260507211327 14 42 1.6 11.3 0.00 0.00 0.00 45 1012.5
20260507210833 14 69 1.6 11.3 0.00 0.00 0.00 43 1012.5
20260507210321 14 15 3.2 14.5 0.00 0.00 0.00 44 1012.5
20260507205840 15 53 3.2 14.5 0.00 0.00 0.00 41 1012.5
20260507205324 15 49 1.6 14.5 0.00 0.00 0.00 45 1012.5
20260507204813 14 74 1.6 11.3 0.00 0.00 0.00 42 1012.5
20260507204319 14 70 3.2 11.3 0.00 0.00 0.00 43 1012.4
20260507203825 15 28 3.2 12.9 0.00 0.00 0.00 42 1012.4
20260507203350 15 203 0.0 8.0 0.00 0.00 0.00 46 1012.4
20260507202833 15 22 1.6 11.3 0.00 0.00 0.00 45 1012.5
20260507202338 14 22 1.6 12.9 0.00 0.00 0.00 41 1012.5
20260507201823 14 63 1.6 12.9 0.00 0.00 0.00 44 1012.5
20260507201326 14 122 3.2 14.5 0.00 0.00 0.00 44 1012.4
20260507200832 15 30 3.2 14.5 0.00 0.00 0.00 45 1012.4
20260507200315 15 109 1.6 9.7 0.00 0.00 0.00 51 1012.4
20260507195816 14 291 0.0 9.7 0.00 0.00 0.00 51 1012.5
20260507195324 15 294 1.6 11.3 0.00 0.00 0.00 47 1012.5
20260507194815 15 19 1.6 12.9 0.00 0.00 0.00 46 1012.5
20260507194320 15 46 1.6 12.9 0.00 0.00 0.00 47 1012.5
20260507193825 15 26 3.2 14.5 0.00 0.00 0.00 50 1012.5
20260507193350 15 327 1.6 11.3 0.00 0.00 0.00 49 1012.5
20260507192833 14 298 1.6 11.3 0.00 0.00 0.00 49 1012.8
20260507192319 14 76 4.8 11.3 0.00 0.00 0.00 47 1012.8
20260507191824 14 278 1.6 11.3 0.00 0.00 0.00 48 1012.8
20260507191320 14 66 4.8 11.3 0.00 0.00 0.00 49 1012.6
20260507190826 14 355 1.6 9.7 0.00 0.00 0.00 48 1012.6
20260507190351 15 108 0.0 11.3 0.00 0.00 0.00 53 1012.6
20260507185812 14 158 0.0 11.3 0.00 0.00 0.00 49 1012.7
20260507185324 15 155 3.2 11.3 0.00 0.00 0.00 46 1012.7
20260507184815 15 171 1.6 8.0 0.00 0.00 0.00 48 1012.7
20260507184320 14 178 1.6 9.7 0.00 0.00 0.00 48 1012.7
20260507183825 14 346 3.2 16.1 0.00 0.00 0.00 44 1012.7
20260507183329 14 171 4.8 16.1 0.00 0.00 0.00 49 1012.7
20260507182856 13 95 0.0 12.9 0.00 0.00 0.00 46 1012.6
20260507182318 13 159 1.6 12.9 0.00 0.00 0.00 46 1012.6
20260507181846 14 96 3.2 12.9 0.00 0.00 0.00 44 1012.6
20260507181326 14 9 3.2 11.3 0.00 0.00 0.00 47 1012.8
20260507180836 15 259 1.6 11.3 0.00 0.00 0.00 44 1012.8
20260507180319 14 71 1.6 11.3 0.00 0.00 0.00 52 1012.8
20260507175824 13 161 0.0 9.7 0.00 0.00 0.00 49 1012.9
20260507175333 13 155 3.2 9.7 0.00 0.00 0.00 44 1012.9
20260507174821 13 252 1.6 11.3 0.00 0.00 0.00 47 1012.9
20260507174324 13 123 3.2 11.3 0.00 0.00 0.00 44 1013.1
20260507173832 14 121 1.6 11.3 0.00 0.00 0.00 49 1013.1
20260507173317 13 173 1.6 6.4 0.00 0.00 0.00 43 1013.1
20260507172841 13 175 1.6 9.7 0.00 0.00 0.00 46 1013.3
20260507172325 13 119 3.2 9.7 0.00 0.00 0.00 43 1013.3
20260507171832 13 126 1.6 14.5 0.00 0.00 0.00 44 1013.3
20260507171335 13 132 4.8 14.5 0.00 0.00 0.00 44 1013.4
20260507170821 13 35 1.6 8.0 0.00 0.00 0.00 43 1013.4
20260507170329 13 73 1.6 8.0 0.00 0.00 0.00 42 1013.4
20260507165831 13 173 3.2 9.7 0.00 0.00 0.00 45 1013.4
20260507165321 13 84 3.2 11.3 0.00 0.00 0.00 44 1013.4
20260507164842 13 173 3.2 11.3 0.00 0.00 0.00 46 1013.4
20260507164324 13 146 6.4 11.3 0.00 0.00 0.00 42 1013.4
20260507163832 13 171 1.6 11.3 0.00 0.00 0.00 45 1013.4
20260507163322 13 27 3.2 8.0 0.00 0.00 0.00 47 1013.4
20260507162825 13 85 1.6 6.4 0.00 0.00 0.00 45 1013.4
20260507162331 13 120 1.6 8.0 0.00 0.00 0.00 49 1013.4
20260507161816 12 132 1.6 8.0 0.00 0.00 0.00 50 1013.4
20260507161321 12 109 1.6 8.0 0.00 0.00 0.00 47 1013.4
20260507160829 12 184 0.0 8.0 0.00 0.00 0.00 50 1013.4
20260507160323 12 88 0.0 8.0 0.00 0.00 0.00 48 1013.4
20260507155827 12 57 0.0 6.4 0.00 0.00 0.00 52 1013.4
20260507155331 12 343 0.0 11.3 0.00 0.00 0.00 52 1013.4
20260507154816 11 27 1.6 11.3 0.00 0.00 0.00 53 1013.4
20260507154320 11 240 1.6 11.3 0.00 0.00 0.00 50 1013.4
20260507153825 11 128 3.2 8.0 0.00 0.00 0.00 50 1013.4
20260507153330 11 63 0.0 8.0 0.00 0.00 0.00 53 1013.4
20260507152836 12 157 1.6 8.0 0.00 0.00 0.00 58 1013.3
20260507152341 11 32 4.8 8.0 0.00 0.00 0.00 53 1013.3
20260507151853 11 153 0.0 6.4 0.00 0.00 0.00 57 1013.3
20260507151334 11 38 0.0 9.7 0.00 0.00 0.00 55 1013.4
20260507150822 11 113 0.0 9.7 0.00 0.00 0.00 53 1013.4
20260507150331 11 38 3.2 9.7 0.00 0.00 0.00 52 1013.4
20260507145854 11 148 0.0 9.7 0.00 0.00 0.00 54 1013.5
20260507145341 11 150 1.6 9.7 0.00 0.00 0.00 54 1013.5
20260507144825 11 115 0.0 9.7 0.00 0.00 0.00 55 1013.5
20260507144346 11 132 0.0 6.4 0.00 0.00 0.00 56 1013.5
20260507143833 11 194 1.6 6.4 0.00 0.00 0.00 57 1013.5
20260507143338 10 45 1.6 6.4 0.00 0.00 0.00 63 1013.5
20260507142824 10 35 0.0 3.2 0.00 0.00 0.00 61 1013.5
20260507142348 10 36 0.0 3.2 0.00 0.00 0.00 64 1013.5
20260507141853 10 37 0.0 1.6 0.00 0.00 0.00 62 1013.5
20260507141354 10 38 0.0 4.8 0.00 0.00 0.00 64 1013.8
20260507140815 10 38 0.0 4.8 0.00 0.00 0.00 65 1013.8
20260507140343 10 36 0.0 4.8 0.00 0.00 0.00 66 1013.8
20260507135848 10 42 0.0 6.4 0.00 0.00 0.00 64 1013.9
20260507135332 10 42 0.0 6.4 0.00 0.00 0.00 65 1013.9
20260507134819 9 24 0.0 6.4 0.00 0.00 0.00 69 1013.9
20260507134321 9 24 1.6 6.4 0.00 0.00 0.00 68 1014.0
20260507133829 8 157 0.0 8.0 0.00 0.00 0.00 66 1014.0
20260507133339 8 112 1.6 8.0 0.00 0.00 0.00 69 1014.0
20260507132823 8 26 1.6 8.0 0.00 0.00 0.00 69 1014.1
20260507132332 8 154 0.0 4.8 0.00 0.00 0.00 71 1014.1
20260507131841 8 157 0.0 3.2 0.00 0.00 0.00 72 1014.1
20260507131326 8 67 0.0 4.8 0.00 0.00 0.00 75 1014.0
20260507130831 7 74 0.0 6.4 0.00 0.00 0.00 72 1014.0
20260507130315 7 84 1.6 6.4 0.00 0.00 0.00 74 1014.0
20260507125816 7 24 0.0 6.4 0.00 0.00 0.00 75 1014.0
20260507125324 7 43 1.6 6.4 0.00 0.00 0.00 75 1014.0
20260507124812 7 34 0.0 4.8 0.00 0.00 0.00 80 1014.0
20260507124358 7 31 0.0 3.2 0.00 0.00 0.00 81 1014.0
20260507123822 6 30 0.0 3.2 0.00 0.00 0.00 83 1014.0
20260507123332 6 25 0.0 3.2 0.00 0.00 0.00 87 1014.0
20260507122837 6 25 0.0 0.0 0.00 0.00 0.00 88 1014.0
20260507122322 6 25 0.0 0.0 0.00 0.00 0.00 89 1014.0
20260507121848 6 25 0.0 0.0 0.00 0.00 0.00 94 1014.0
20260507121330 5 25 0.0 0.0 0.00 0.00 0.00 95 1014.0
20260507120836 5 24 0.0 4.8 0.00 0.00 0.00 97 1014.0
20260507120319 5 16 0.0 4.8 0.00 0.00 0.00 99 1014.0
20260507115821 5 16 0.0 0.0 0.00 0.00 0.00 100 1014.0